Stations météo

réclame
Mon MeteoGroup
Rimini, Italie (16149): Température de l'air & dewpoint: 14.06.2018 07:00:00 - 20.06.2018 07:00:00 (CEST)Rimini, Italie (16149): Vitesse du vent: 14.06.2018 07:00:00 - 20.06.2018 07:00:00 (CEST)Rimini, Italie (16149): Direction du vent: 14.06.2018 07:00:00 - 20.06.2018 07:00:00 (CEST)Rimini, Italie (16149): reduced air pressure: 14.06.2018 07:00:00 - 20.06.2018 07:00:00 (CEST)Rimini, Italie (16149): visibility: 14.06.2018 07:00:00 - 20.06.2018 07:00:00 (CEST)
Date & Time tt [°C] td [°C] ff [km/h] ff [knt] dd ppp [hPa] vv [km]
20.06.2018 07:00:00 20,0 17,0 0 0 N - 10
20.06.2018 06:00:00 19,0 17,0 0 0 N - 10
20.06.2018 05:00:00 18,0 16,0 0 0 N - 10
20.06.2018 04:00:00 19,0 17,0 0 0 N - 10
20.06.2018 03:00:00 19,0 17,0 0 0 N - 10
20.06.2018 02:00:00 18,6 16,9 5 3 S 1019,5 10
20.06.2018 01:00:00 20,0 17,0 4 2 SSW - 10
20.06.2018 00:00:00 20,0 18,0 5 3 SSW - 10
19.06.2018 23:00:00 22,4 18,0 2 1 SSW 1019,2 10
19.06.2018 22:00:00 22,0 18,0 9 5 S - 10
19.06.2018 21:00:00 26,0 16,0 2 1 W - 10
19.06.2018 20:00:00 28,0 15,0 8 4 N 1018,3 10
19.06.2018 19:00:00 28,0 15,0 9 5 N - 10
19.06.2018 18:00:00 29,0 16,0 9 5 NNE - 10
19.06.2018 17:00:00 29,0 15,9 9 5 NE 1018,6 10
19.06.2018 16:00:00 29,0 17,0 11 6 NE - 10
19.06.2018 15:00:00 29,0 17,0 15 8 NNE - 10
19.06.2018 14:00:00 29,0 15,2 15 8 NE 1019,8 10
19.06.2018 13:00:00 29,0 16,0 15 8 NNE - 10
19.06.2018 12:00:00 29,0 17,0 11 6 NNE - 10
19.06.2018 11:00:00 27,7 20,5 15 8 N 1019,8 10
19.06.2018 10:00:00 27,0 19,0 5 3 NNE - 10
19.06.2018 09:00:00 27,0 20,0 8 4 NNW - 10
19.06.2018 08:00:00 23,8 19,3 9 5 W 1018,4 10
19.06.2018 07:00:00 21,0 20,0 0 0 N - 10
19.06.2018 06:00:00 19,0 18,0 2 1 WSW - 10
19.06.2018 05:00:00 19,4 18,4 4 2 SSW 1017,4 10
19.06.2018 04:00:00 20,0 19,0 5 3 SW - 10
19.06.2018 03:00:00 20,0 19,0 2 1 S - 10
19.06.2018 02:00:00 20,0 18,8 4 2 S 1017,4 10
19.06.2018 01:00:00 21,0 19,0 4 2 SSW - 10
19.06.2018 00:00:00 21,0 19,0 4 2 SSW - 10
18.06.2018 23:00:00 22,2 19,2 2 1 SSW 1016,4 10
18.06.2018 22:00:00 24,0 20,0 8 4 S - 10
18.06.2018 21:00:00 26,0 21,0 2 1 WSW - 10
18.06.2018 20:00:00 27,4 21,0 8 4 NNW 1015,5 10
18.06.2018 19:00:00 27,0 21,0 11 6 N - 10
18.06.2018 18:00:00 28,0 22,0 15 8 N - 10
18.06.2018 17:00:00 28,8 23,7 9 5 N 1015,6 10
18.06.2018 16:00:00 29,0 22,0 13 7 N - 10
18.06.2018 15:00:00 29,0 22,0 18 10 N - 10
18.06.2018 14:00:00 28,6 22,4 21 11 N 1016,1 10
18.06.2018 13:00:00 28,0 22,0 24 13 NNW - 10
18.06.2018 12:00:00 27,0 22,0 28 15 NNW - 10
18.06.2018 11:00:00 26,8 23,7 29 16 NNW 1015,6 10
18.06.2018 10:00:00 26,0 22,0 28 15 NW - 10
18.06.2018 09:00:00 25,0 19,0 16 9 WNW - 10
18.06.2018 08:00:00 20,8 17,4 16 9 W 1014,3 10
18.06.2018 07:00:00 19,0 17,0 0 0 N - 10
18.06.2018 06:00:00 19,0 15,0 0 0 N - 10
18.06.2018 05:00:00 19,2 15,3 0 0 N 1013,4 10
18.06.2018 04:00:00 20,0 16,0 5 3 WSW - 10
18.06.2018 03:00:00 20,0 16,0 5 3 WSW - 10
18.06.2018 02:00:00 19,4 17,0 2 1 SW 1013,8 10
18.06.2018 01:00:00 20,0 18,0 5 3 WSW - 10
18.06.2018 00:00:00 20,0 18,0 4 2 SW - 10
17.06.2018 23:00:00 21,2 19,1 8 4 SSW 1013,8 10
17.06.2018 22:00:00 24,0 22,0 0 0 N - 10
17.06.2018 21:00:00 25,0 22,0 0 0 N - 10
17.06.2018 20:00:00 27,0 21,1 4 2 NE 1012,5 10
17.06.2018 19:00:00 27,0 22,0 4 2 NNE - 10
17.06.2018 18:00:00 27,0 22,0 9 5 NNE - 10
17.06.2018 17:00:00 27,8 19,9 9 5 N 1013,4 10
17.06.2018 16:00:00 28,0 19,0 9 5 N - 10
17.06.2018 15:00:00 28,0 21,0 11 6 N - 10
17.06.2018 14:00:00 27,8 20,6 15 8 N 1013,5 10
17.06.2018 13:00:00 28,0 20,0 15 8 N - 10
17.06.2018 12:00:00 27,0 19,0 15 8 N - 10
17.06.2018 11:00:00 26,4 18,5 13 7 NNW 1013,3 10
17.06.2018 10:00:00 26,0 18,0 16 9 W - 10
17.06.2018 09:00:00 25,0 17,0 18 10 W - 10
17.06.2018 08:00:00 21,8 18,2 15 8 W 1012,4 10
17.06.2018 07:00:00 19,0 17,0 5 3 WSW - 10
17.06.2018 06:00:00 19,0 16,0 4 2 WSW - 10
17.06.2018 05:00:00 19,0 16,0 5 3 SW 1012,4 10
17.06.2018 04:00:00 19,0 16,0 5 3 SW - 10
17.06.2018 03:00:00 19,0 17,0 5 3 WSW - 10
17.06.2018 02:00:00 18,8 16,8 5 3 SW 1012,4 10
17.06.2018 01:00:00 19,0 17,0 2 1 WSW - 10
17.06.2018 00:00:00 19,0 17,0 4 2 WSW - 10
16.06.2018 23:00:00 21,0 18,2 5 3 SSW 1012,0 10
16.06.2018 22:00:00 23,0 19,0 0 0 N - 10
16.06.2018 21:00:00 25,0 18,0 0 0 N - 10
16.06.2018 20:00:00 26,2 15,9 4 2 NW 1011,4 10
16.06.2018 19:00:00 26,0 16,0 9 5 N - 10
16.06.2018 18:00:00 26,0 16,0 11 6 N - 10
16.06.2018 17:00:00 26,4 16,1 13 7 NNW 1012,4 10
16.06.2018 16:00:00 26,0 16,0 13 7 N - 10
16.06.2018 15:00:00 26,0 16,0 16 9 N - 10
16.06.2018 14:00:00 26,0 16,6 16 9 N 1012,6 10
16.06.2018 13:00:00 26,0 18,0 16 9 NNW - 10
16.06.2018 12:00:00 26,0 18,0 13 7 NNW - 10
16.06.2018 11:00:00 24,8 17,5 16 9 NNW 1012,5 10
16.06.2018 10:00:00 24,0 17,0 16 9 WNW - 10
16.06.2018 09:00:00 24,0 17,0 16 9 WNW - 10
16.06.2018 08:00:00 20,0 16,4 16 9 W 1012,5 10
16.06.2018 07:00:00 18,0 16,0 0 0 N - 10
16.06.2018 06:00:00 17,0 15,0 0 0 N - 10
16.06.2018 05:00:00 17,0 15,7 4 2 WSW 1012,5 10
16.06.2018 04:00:00 18,0 17,0 0 0 N - 10
16.06.2018 03:00:00 18,0 17,0 2 1 WSW - 10
16.06.2018 02:00:00 17,4 17,1 0 0 N 1012,5 10
16.06.2018 01:00:00 18,0 16,0 0 0 N - 10
16.06.2018 00:00:00 19,0 17,0 4 2 SSW - 10
15.06.2018 23:00:00 20,0 17,4 5 3 S 1012,3 10
15.06.2018 22:00:00 21,0 16,0 5 3 S - 10
15.06.2018 21:00:00 23,0 14,0 2 1 ENE - 10
15.06.2018 20:00:00 24,8 15,7 4 2 NNE 1010,8 10
15.06.2018 19:00:00 25,0 15,0 5 3 NNE - 10
15.06.2018 18:00:00 25,0 16,0 5 3 NNW - 10
15.06.2018 17:00:00 24,6 15,8 5 3 N 1011,3 10
15.06.2018 16:00:00 25,0 15,0 9 5 ENE - 10
15.06.2018 15:00:00 24,0 15,0 9 5 ENE - 10
15.06.2018 14:00:00 25,0 15,6 9 5 NE 1011,6 10
15.06.2018 13:00:00 25,0 16,0 15 8 NE - 10
15.06.2018 12:00:00 25,0 15,0 16 9 NE - 10
15.06.2018 11:00:00 24,0 15,5 18 10 NE 1011,2 10
15.06.2018 10:00:00 24,0 16,0 15 8 NE - 10
15.06.2018 09:00:00 22,0 18,0 9 5 NW - 10
15.06.2018 08:00:00 19,8 17,2 9 5 SSW 1010,6 10
15.06.2018 07:00:00 20,0 17,0 11 6 WNW - 10
15.06.2018 06:00:00 21,0 15,0 13 7 ENE - 10
15.06.2018 05:00:00 18,8 17,1 5 3 W 1010,1 10
15.06.2018 04:00:00 20,0 18,0 4 2 WSW - 10
15.06.2018 03:00:00 21,0 15,0 8 4 NE - 10
15.06.2018 02:00:00 19,2 17,5 2 1 WSW 1010,6 10
15.06.2018 01:00:00 22,0 16,0 2 1 S - 10
15.06.2018 00:00:00 22,0 17,0 2 1 SSE - 10
14.06.2018 23:00:00 22,4 16,2 11 6 ENE 1009,9 10
14.06.2018 22:00:00 22,0 16,0 9 5 ENE - 10
14.06.2018 21:00:00 22,0 16,0 15 8 ENE - 10
14.06.2018 20:00:00 23,0 16,1 16 9 ENE 1009,1 10
14.06.2018 19:00:00 24,0 17,0 16 9 ENE - 10
14.06.2018 18:00:00 24,0 19,0 8 4 N - 10
14.06.2018 17:00:00 23,0 19,0 9 5 NNW 1008,9 10
14.06.2018 16:00:00 23,0 19,0 11 6 NNW - 10
14.06.2018 15:00:00 22,0 19,0 8 4 W - 10
14.06.2018 14:00:00 19,0 17,7 11 6 W 1009,5 10
14.06.2018 13:00:00 20,0 19,0 5 3 WNW - 6
14.06.2018 12:00:00 21,0 19,0 15 8 WNW - 10
14.06.2018 11:00:00 19,0 17,8 15 8 WNW 1008,7 10
14.06.2018 10:00:00 18,0 17,0 15 8 W - 10
14.06.2018 09:00:00 18,0 17,0 18 10 WNW - 10
14.06.2018 08:00:00 18,0 17,2 15 8 WNW 1006,5 10
14.06.2018 07:00:00 18,0 17,0 11 6 W - 10

tt = Température de l'air
td = dewpoint
ff = Vitesse du vent
dd = Direction du vent
ppp = reduced air pressure
vv = visibility

stations d'obs. à proximité